Weather in Kaadedhdhoo

Maldives     0°29′15″N   72°59′38″E
temp.,
°C
wind,
m/s
gust,
m/s
humid.,
%
clouds,
%
prec.,
mm/h
press.,
hPa
HPBL,
m
10 august, wed
wed1023:00+28ssw1270100 0.0 1009572
02:00+28s116956 0.0 1008504
05:00+27ene117058 0.0 1008461
08:00+27ne22715 0.0 1009554
11:00+28nne2271100 0.0 1009548
14:00+28nne11705 0.0 1007654
17:00+28n226932 0.0 1007725
20:00+28nne11695 0.0 1009701
11 august, thu
thu1123:00+28ese117017 0.0 1010623
02:00+28ese117121 0.0 1008581
05:00+27e11720 0.0 1008522
08:00+28e33742 0.0 1010645
11:00+28e33742 0.0 1009664
14:00+28e337418 0.0 1008794
17:00+28e347413 0.1 1008794
20:00+28e33748 0.1 1010733
12 august, fri
fri1223:00+28e457671 1.1 1011717
02:00+28e557720 0.4 1009611
05:00+28e5576100 0.6 1009781
08:00+28e557781 0.4 1011725
11:00+28ese4476100 1.3 1010754
14:00+28ese447614 0.3 1008714
17:00+28ese557612 2.0 1008692
20:00+27ese557951 2.3 1010477
13 august, sat
sat1323:00+28e55776 3.4 1010698
02:00+27e5678100 2.6 1009593
05:00+28ese557527 3.2 1009782
08:00+28ese557756 1.0 1010694
11:00+28ese557447 1.2 1011904
14:00+28ese447331 0.0 1008869
17:00+28e5576100 0.9 1008748
20:00+28e447684 0.4 1010736
14 august, sun
sun1423:00+28e4476100 0.4 1010769
02:00+28e447698 0.1 1008707
05:00+28ese447683 0.1 1009774
08:00+27e4578100 2.1 1011532
11:00+28e4577100 3.0 1011575
14:00+28ese4475100 0.1 1009755
17:00+28e4474100 0.3 1009774
20:00+28e447461 0.0 1010787